Find Starlink 30792

NORAD ID: 58220 Int'l Des: 2023-170 Owner: SPXS Country: US Constellation: starlink operational
LEOCIRCULAR

实时位置

正在加载3D地球...

关于 Starlink 30792

正在加载描述...

即将过境

Passes for default location (London). Set your location on the main map for personalized predictions.

高度历史

Loading altitude history...

两行轨道根数

1 58220U 23170Q 26124.36653404 .00019089 00000-0 12826-2 0 9994
2 58220 43.0002 251.7702 0005803 316.0702 43.9680 15.06451084138676
Epoch: May 4, 2026 • Age: 29 hours

当前状态

高度 543.4 km
速度 7.59 km/s
星下点 9.40°N, 170.55°W
发射日期 Nov 4, 2023
运行时间 2.4 years
类型 internet

技术详情

分类 Payload
质量 730.00 kg
干质量 700.00 kg
总质量 730.00 kg
长度 0.30 m
直径 4.10 m
跨度 29.00 m
形状 Box + pan
制造商 SPXS
平台类型 Starlink V2M
阶段状态 In Orbit
所有者/国家 SPXS/US

Most Searched